Regional Weather Roundup
Issued by NWS

Home | Current Version | Previous Version | Graphics & Text | Print | Product List | Glossary On
Versions: 1 2 3 4 5 6 7 8 9 10 11 12 13 14 15 16 17 18 19 20 21 22 23 24 25 26 27 28 29 30 31 32 33 34 35 36 37 38 39 40 41 42 43 44 45 46 47 48 49 50
000
ASUS43 KMPX 021001
RWRMN
WEATHER ROUNDUP FOR MINNESOTA
NATIONAL WEATHER SERVICE TWIN CITIES/CHANHASSEN MN
500 AM CDT TUE SEP 02 2014


NOTE: "FAIR" INDICATES FEW OR NO CLOUDS BELOW 12,000 FEET WITH NO
SIGNIFICANT WEATHER AND/OR OBSTRUCTIONS TO VISIBILITY. N/A MEANS
CURRENT SKY AND/OR WEATHER CONDITIONS ARE NOT AVAILABLE.

MNZ060>063-068>070-021100-
   Twin Cities Metro

CITY           SKY/WX    TMP DP  RH WIND       PRES   REMARKS
TWIN CITIES    CLOUDY    63  59  87 SW5       29.83S
ST PAUL        CLOUDY    63  59  87 CALM      29.83S
CRYSTAL        CLOUDY    64  58  80 W6        29.82S
BLAINE         CLOUDY    64  61  88 W3        29.83S
LAKEVILLE      CLOUDY    61  57  88 W3        29.84S
EDEN PRAIRIE   CLOUDY    61  58  90 SW6       29.83S
SOUTH ST PAUL  CLOUDY    64  58  83 CALM      29.83R
LAKE ELMO      FAIR      61  59  94 CALM      29.84S
$$
MNZ001>005-007-008-013>017-022>024-027-028-021100-
   Northwest Minnesota

CITY           SKY/WX    TMP DP  RH WIND       PRES   REMARKS
BEMIDJI        CLEAR     54  50  86 SW7       29.80S
HALLOCK        CLEAR     46  45  93 S3        29.74S
ROSEAU           N/A     52  46  82 SW6       29.74S
WARROAD        CLEAR     50  46  87 SW5       29.74S
THIEF RVR FALL CLEAR     48  46  93 S5        29.77F
CROOKSTON      CLEAR     52  48  87 CALM      29.78S
FOSSTON        MOCLDY    46  46 100 S6        29.81S
DETROIT LAKES  CLEAR     55  52  88 SW5       29.83S
MOORHEAD       CLEAR     54  54 100 S5        29.82F
PARK RAPIDS    CLEAR     49  47  93 CALM      29.82S
MAHNOMEN       FAIR      49  48  99 S6        29.81S
$$
MNZ006-009>011-018-025>026-021100-
   North Central Minnesota

CITY           SKY/WX    TMP DP  RH WIND       PRES   REMARKS
BAUDETTE       CLEAR     51  48  89 CALM      29.74R
FLAG ISLAND    CLEAR     55  50  82 W13       29.71R
INTL FALLS     CLEAR     47  46  97 SW5       29.74S
WASKISH        CLEAR     57  55  94 S3        29.77S
BIG FORK       CLEAR     46  45  93 CALM      29.79S FOG
LONGVILLE      PTCLDY    48  48 100 CALM      29.81S
GRAND RAPIDS   PTCLDY    54  48  82 CALM      29.81R
CRANE LAKE     CLEAR     43  43 100 CALM      29.78R
ORR            CLEAR     48  46  93 CALM      29.76R
COOK           CLEAR     48  48 100 CALM      29.79R
WALKER         FAIR      52  49  88 W5        29.81R
$$
MNZ012-019>021-037-021100-
   Northeast Minnesota

CITY           SKY/WX    TMP DP  RH WIND       PRES   REMARKS
DULUTH         MOCLDY    55  51  86 W7        29.81R
ELY            PTCLDY    50  48  93 SW5       29.78S
HIBBING        FOG       45  43  93 CALM      29.80R VSB 1/4
EVELETH        FOG       50  50 100 W3        29.81R VSB 1/2
DULUTH HARBOR  CLOUDY    57  54  88 SW9       29.81R
TWO HARBORS    MOCLDY    52  46  82 W3        29.78R
SILVER BAY     MOCLDY    52  52 100 NW5       29.77R
GRAND MARAIS     N/A     58  53  84 W3        29.74S
G MARAIS ARPRT CLEAR     52  46  82 W6        29.78R
$$
MNZ029>031-032-039>041-046>048-054>057-064-021100-
   West Central Minnesota

CITY           SKY/WX    TMP DP  RH WIND       PRES   REMARKS
FERGUS FALLS   CLEAR     54  52  94 CALM      29.85S
WHEATON        CLEAR     54  52  94 SW5       29.86F
MORRIS         CLEAR     54  52  94 W5        29.86R
ALEXANDRIA     PTCLDY    56  53  90 CALM      29.87R
ELBOW LAKE     FAIR      53  52  96 CALM      29.85S
WADENA         CLEAR     52  50  93 W5        29.84R
GLENWOOD       PTCLDY    55  54  94 W7        29.87R
APPLETON       CLEAR     55  52  88 SW5       29.87R
BENSON         PTCLDY    54  52  94 CALM      29.87R
ORTONVILLE     CLEAR     57  54  88 CALM      29.86S
MADISON        CLEAR     57  55  94 CALM      29.88R
WILLMAR        FAIR      57  54  88 SW3       29.88S
$$
MNZ033>034-036-042>043-049>051-058-059-021100-
   Central Minnesota

CITY           SKY/WX    TMP DP  RH WIND       PRES   REMARKS
ST CLOUD       CLOUDY    60  55  83 CALM      29.84R
SAUK CENTRE    FAIR      55  54  94 NW3       29.86R
PAYNESVILLE    HVY RAIN  53  53 100 SW6       29.86S
AITKIN           N/A     54  48  82 CALM      29.82R HAZE
PINE RIVER     FOG       46  46 100 CALM      29.87R VSB 3/4
BRAINERD       MOCLDY    50  50 100 S5        29.84R
STAPLES        PTCLDY    50  48  93 CALM      29.84R
LONG PRAIRIE   FAIR      52  52 100 CALM      29.86R
LITTLE FALLS     N/A     52  50  93 CALM      29.84S FOG
LITCHFIELD     CLOUDY    61  59  94 W3        29.86S
BUFFALO        CLOUDY    62  57  82 W8        29.85S
MAPLE LAKE     CLOUDY    61  58  90 W5        29.85S
$$
MNZ037-044-045-052-053-021100-
   East Central Minnesota

CITY           SKY/WX    TMP DP  RH WIND       PRES   REMARKS
PRINCETON      CLOUDY    57  55  94 CALM      29.85R
MORA           CLOUDY    54  50  87 CALM      29.86R
CAMBRIDGE      CLOUDY    57  50  77 CALM      29.82F
RUSH CITY      CLOUDY    55  53  95 CALM      29.84S
MOOSE LAKE     CLOUDY    52  50  93 CALM      29.81S
HINCKLEY       FAIR      54  54 100 CALM      29.83S
CLOQUET        MOCLDY    54  50  87 W6        29.82R
MCGREGOR       MOCLDY    50  50 100 CALM      29.84R
$$
MNZ071>073-080-081-089-090-097-098-021100-
   Southwest Minnesota

CITY           SKY/WX    TMP DP  RH WIND       PRES   REMARKS
MONTEVIDEO     PTCLDY    57  54  88 W6        29.88R
GRANITE FALLS  MOCLDY    55  54  95 SW6       29.89S
CANBY          CLEAR     58  55  89 W7        29.89S
MARSHALL       MOCLDY    59  54  82 W8        29.89R
REDWOOD FALLS  CLOUDY    62  55  77 W8        29.87S
OLIVIA         CLOUDY    57  54  88 W3        29.87R
PIPESTONE      PTCLDY    54  52  94 W3        29.93R
WINDOM         CLOUDY    61  55  82 CALM      29.90F
WORTHINGTON    CLOUDY    59  55  88 W6        29.93F
JACKSON        CLOUDY    59  54  82 W5        29.91F
TRACY          CLOUDY    61  55  79 W5        29.90S
SLAYTON        CLOUDY    59  54  82 CALM      29.92S
$$
MNZ065>067-074>077-082>085-091>093-021100-
   South Central Minnesota

CITY           SKY/WX    TMP DP  RH WIND       PRES   REMARKS
MANKATO        CLOUDY    61  54  77 W10       29.88S
NEW ULM        CLOUDY    61  59  94 SW8       29.88S
ST JAMES       LGT RAIN  61  57  88 W6        29.92F
FAIRMONT       CLOUDY    61  52  72 NW10      29.90R
GLENCOE        CLOUDY    62  55  80 W5        29.85S
FARIBAULT      CLOUDY    64  57  77 W3        29.87R
OWATONNA       LGT RAIN  61  57  88 W3        29.88R
WASECA         CLOUDY    57  54  88 W6        29.91R
ALBERT LEA     CLOUDY    61  57  88 CALM      29.89S
$$
MNZ078>079-086>088-094>096-021100-
   Southeast Minnesota

CITY           SKY/WX    TMP DP  RH WIND       PRES   REMARKS
ROCHESTER      CLOUDY    60  55  83 W8        29.87S
RED WING       CLOUDY    61  57  88 NW3       29.83R
STANTON        DRIZZLE   62  58  88 S5        29.84R
DODGE CENTER   CLOUDY    61  57  88 SW8       29.87S
WINONA         MOCLDY    59  57  94 CALM      29.85S
AUSTIN         CLOUDY    61  55  82 W8        29.87F
PRESTON        MOCLDY    56  57 100 CALM      29.88S
$$
ABBREVIATIONS USED IN REMARKS
   TC - TEMPERATURES IN CELSIUS
  WCI - WIND CHILL INDEX
   HX - HEAT INDEX
  VSB - VISIBILITY
$$



USA.gov is the U.S. government's official web portal to all federal, state and local government web resources and services.